CDT,Max TemperatureF,Mean TemperatureF,Min TemperatureF,Max Dew PointF,MeanDew PointF,Min DewpointF,Max Humidity, Mean Humidity, Min Humidity, Max Sea Level PressureIn, Mean Sea Level PressureIn, Min Sea Level PressureIn, Max VisibilityMiles, Mean VisibilityMiles, Min VisibilityMiles, Max Wind SpeedMPH, Mean Wind SpeedMPH, Max Gust SpeedMPH,PrecipitationIn, CloudCover, Events, WindDirDegrees
2013-7-1,80,69,57,53,50,47,72,52,32,30.11,30.08,30.03,10,10,10,23,12,32,0.00,1,,44
2013-7-2,76,67,57,53,50,44,80,57,33,30.11,30.09,30.07,10,10,10,20,8,24,0.00,4,,45
2013-7-3,72,65,57,62,57,52,93,81,68,30.09,30.07,30.04,10,10,8,9,3,30,T,6,,10
2013-7-4,83,70,56,65,61,55,100,74,47,30.10,30.07,30.02,10,8,2,16,5,21,0.00,2,Fog,168
2013-7-5,84,73,61,66,62,58,90,69,48,30.09,30.06,30.02,10,9,7,17,6,,0.00,1,,172
2013-7-6,84,73,62,68,64,60,93,72,51,30.06,30.03,29.97,10,9,6,14,6,16,0.00,3,,174
2013-7-7,89,79,69,71,69,67,97,74,50,30.01,29.98,29.94,10,9,5,14,7,18,0.00,5,,192
2013-7-8,88,80,71,76,72,68,93,79,65,30.02,29.97,29.93,10,9,2,23,8,35,0.75,6,Rain-Thunderstorm,224
2013-7-9,84,78,72,76,74,71,100,85,70,29.99,29.94,29.87,10,8,2,18,7,24,0.26,5,Rain,209
2013-7-10,82,75,67,76,65,56,100,73,45,30.03,29.92,29.86,10,10,7,18,8,23,0.00,3,,331
2013-7-11,82,72,61,63,57,51,90,63,36,30.13,30.10,30.04,10,10,10,14,5,25,0.00,1,,40
2013-7-12,84,71,57,60,55,50,90,62,33,30.18,30.13,30.09,10,10,10,9,3,16,0.00,1,,134
2013-7-13,85,72,59,62,59,55,87,65,42,30.17,30.14,30.10,10,10,8,13,5,16,0.00,3,,135
2013-7-14,88,77,65,68,65,60,87,69,50,30.22,30.19,30.16,10,10,10,14,7,17,0.00,1,,112
2013-7-15,91,81,71,74,71,66,85,71,56,30.28,30.24,30.21,10,10,9,16,5,24,0.00,2,,135
2013-7-16,91,83,74,75,74,72,94,75,56,30.31,30.27,30.25,10,9,5,12,5,20,0.00,2,,201
2013-7-17,93,83,73,74,73,71,94,73,52,30.32,30.26,30.18,10,10,6,13,4,18,0.00,1,,218
2013-7-18,94,84,74,75,73,71,94,73,52,30.19,30.08,29.95,10,10,5,16,7,24,0.00,1,,216
2013-7-19,93,84,74,75,72,69,87,68,49,29.93,29.84,29.76,10,10,10,24,11,32,T,3,Thunderstorm,236
2013-7-20,89,78,67,67,63,60,87,64,40,29.95,29.89,29.84,10,10,10,13,5,18,T,3,Rain,344
2013-7-21,86,76,65,67,64,60,87,69,51,29.97,29.94,29.87,10,10,10,26,6,30,T,6,,108
2013-7-22,88,76,63,70,65,62,93,71,48,29.89,29.83,29.74,10,9,2,38,6,48,0.18,4,Rain-Thunderstorm,230
2013-7-23,80,70,60,63,58,53,93,68,42,30.01,29.85,29.74,10,10,10,20,9,24,0.00,5,Rain,356
2013-7-24,79,68,57,55,52,49,87,64,41,30.09,30.06,30.02,10,10,10,13,5,18,0.00,3,,33
2013-7-25,81,68,54,61,57,52,93,69,45,30.11,30.08,30.02,10,10,10,14,6,21,0.00,4,,199
2013-7-26,76,68,59,67,62,56,93,74,54,30.01,29.96,29.88,10,8,2,17,9,24,0.66,7,Rain,210
2013-7-27,65,60,54,55,49,45,93,71,48,29.98,29.95,29.92,10,10,10,18,10,24,0.00,6,,318
2013-7-28,70,62,53,53,49,47,89,68,47,30.06,29.97,29.90,10,10,10,16,8,25,0.00,6,,284
2013-7-29,78,65,51,60,54,49,93,72,50,30.19,30.13,30.07,10,10,10,12,4,17,0.00,3,,315
2013-7-30,70,64,57,65,61,55,93,86,78,30.19,30.14,30.09,10,7,2,12,6,16,0.07,7,Rain,127
2013-7-31,80,71,62,66,64,60,100,81,62,30.07,30.04,29.96,10,6,2,13,4,15,T,7,Rain,11